Weather History for Paducah, KY

Change the Weather History Date:

Sunday, December 4, 2011

  Actual Average Record
Temperature  
Mean Temperature 52 °F 40 °F  
Max Temperature 59 °F 50 °F 74 °F (1998)
Min Temperature 44 °F 31 °F 12 °F (1942)
Degree Days  
Heating Degree Days 13 24  
Month to date heating degree days 78 95  
Since 1 July heating degree days 768 872  
Cooling Degree Days 0 0  
Month to date cooling degree days 0 0  
Year to date cooling degree days 1703 1542  
Moisture  
Dew Point 50 °F    
Average Humidity 76    
Maximum Humidity 100    
Minimum Humidity 51    
Precipitation  
Precipitation 2.63 in 0.16 in 2.63 in (2011)
Month to date precipitation 2.63 0.62  
Year to date precipitation 70.19 45.11  
Snow  
Snow 0.00 in 0.10 in 4.10 in (2002)
Month to date snowfall 0.0 0.2  
Since 1 July snowfall 0.3 0.3  
Snow Depth 0.00 in    
Sea Level Pressure  
Sea Level Pressure 30.12 in    
Wind  
Wind Speed 8 mph (East)    
Max Wind Speed 22 mph    
Max Gust Speed 32 mph    
Visibility 4 miles    
Events Rain    
T = Trace of Precipitation, MM = Missing Value Source: NWS Daily Summary

Daily Weather History Graph

Daily Weather History Graph

Search for Another Location

Airport:

Trip Planner

Search our weather history database for the weather conditions in past years. The results will help you decide how hot, cold, wet, or windy it might be!

Date:

Astronomy

Dec. 04, 2011 Rise Set
Actual Time 6:52 AM CST 4:37 PM CST
Civil Twilight 6:23 AM CST 5:06 PM CST
Nautical Twilight 5:51 AM CST 5:38 PM CST
Astronomical Twilight 5:19 AM CST 6:10 PM CST
Moon 1:02 PM CST (12/4) 1:23 AM CST (12/4)
Length of Visible Light 10h 43m
Length of Day
9h 45m
Waxing Gibbous, 72% of the Moon is Illuminated
Dec 4
Waxing Gibbous
Dec 10
Full
Dec 17
Last Quarter
Dec 24
New
Jan 1
First Quarter

Hourly Weather History & Observations

Time (CST) Temp. Windchill Dew Point Humidity Pressure Visibility Wind Dir Wind Speed Gust Speed Precip Events Conditions
12:53 AM 57.9 °F - 42.1 °F 56% 30.09 in 10.0 mi South 17.3 mph 24.2 mph N/A   Mostly Cloudy
1:53 AM 57.9 °F - 42.1 °F 56% 30.08 in 10.0 mi South 16.1 mph 26.5 mph N/A   Mostly Cloudy
2:53 AM 57.9 °F - 43.0 °F 58% 30.08 in 10.0 mi South 13.8 mph 25.3 mph N/A   Overcast
3:53 AM 57.9 °F - 42.1 °F 56% 30.07 in 10.0 mi South 15.0 mph 25.3 mph N/A   Overcast
4:53 AM 57.9 °F - 41.0 °F 53% 30.06 in 10.0 mi South 13.8 mph 25.3 mph N/A   Overcast
5:53 AM 53.1 °F - 48.9 °F 86% 30.13 in 8.0 mi WNW 5.8 mph - 0.03 in Rain Light Rain
6:53 AM 51.1 °F - 50.0 °F 96% 30.13 in 4.0 mi ESE 3.5 mph - 0.07 in Rain Rain
7:18 AM 51.8 °F - 50.0 °F 94% 30.13 in 2.5 mi Calm Calm - 0.03 in Rain Light Rain
7:42 AM 51.8 °F - 51.8 °F 100% 30.14 in 1.5 mi Calm Calm - 0.11 in Rain Rain
7:53 AM 51.1 °F - 51.1 °F 100% 30.14 in 1.2 mi Calm Calm - 0.15 in Rain Rain
8:17 AM 51.8 °F - 51.8 °F 100% 30.15 in 1.2 mi Calm Calm - 0.07 in Rain Rain
8:28 AM 51.8 °F - 51.8 °F 100% 30.15 in 1.0 mi SE 3.5 mph - 0.12 in Rain Heavy Rain
8:53 AM 52.0 °F - 51.1 °F 97% 30.15 in 1.5 mi ESE 4.6 mph - 0.25 in Rain Heavy Rain
8:59 AM 51.8 °F - 51.8 °F 100% 30.15 in 1.8 mi SE 3.5 mph - 0.03 in Rain Rain
9:36 AM 51.8 °F - 51.8 °F 100% 30.16 in 1.2 mi SE 3.5 mph - 0.19 in Rain Rain
9:53 AM 52.0 °F - 51.1 °F 97% 30.14 in 1.2 mi SE 12.7 mph - 0.29 in Rain Heavy Rain
10:38 AM 51.8 °F - 51.8 °F 100% 30.13 in 1.2 mi SSE 6.9 mph - 0.24 in Rain Heavy Rain
10:53 AM 52.0 °F - 51.1 °F 97% 30.13 in 2.0 mi South 5.8 mph - 0.31 in Rain Rain
11:48 AM 51.8 °F - 51.8 °F 100% 30.12 in 1.5 mi South 8.1 mph - 0.16 in Rain Rain
11:53 AM 52.0 °F - 51.1 °F 97% 30.12 in 1.5 mi South 4.6 mph - 0.18 in Rain Rain
12:04 PM 51.8 °F - 51.8 °F 100% 30.11 in 2.5 mi South 5.8 mph - 0.04 in Rain Rain
12:11 PM 51.8 °F - 51.8 °F 100% 30.12 in 3.0 mi South 4.6 mph - 0.06 in Rain Rain
12:21 PM 51.8 °F - 51.8 °F 100% 30.12 in 2.5 mi Calm Calm - 0.08 in Rain Rain
12:50 PM 51.8 °F - 51.8 °F 100% 30.11 in 3.0 mi SSE 3.5 mph - 0.16 in Rain Light Rain
12:53 PM 52.0 °F - 51.1 °F 97% 30.12 in 4.0 mi Calm Calm - 0.17 in Rain Light Rain
1:01 PM 51.8 °F - 51.8 °F 100% 30.11 in 2.5 mi Calm Calm - 0.02 in Rain Rain
1:19 PM 53.6 °F - 51.8 °F 94% 30.10 in 2.5 mi Calm Calm - 0.07 in Rain Light Rain
1:26 PM 53.6 °F - 51.8 °F 94% 30.10 in 4.0 mi Calm Calm - 0.08 in Rain Light Rain
1:33 PM 53.6 °F - 51.8 °F 94% 30.10 in 4.0 mi NNE 4.6 mph - 0.08 in Rain Light Rain
1:49 PM 53.6 °F - 51.8 °F 94% 30.10 in 7.0 mi Calm Calm - 0.09 in Rain Light Rain
1:53 PM 53.1 °F - 51.1 °F 93% 30.10 in 9.0 mi Calm Calm - 0.09 in   Overcast
2:20 PM 53.6 °F - 51.8 °F 94% 30.10 in 4.0 mi NNE 3.5 mph - N/A Rain Light Rain
2:53 PM 52.0 °F - 51.1 °F 97% 30.11 in 4.0 mi Calm Calm - 0.09 in Rain Rain
3:07 PM 51.8 °F - 51.8 °F 100% 30.12 in 2.0 mi Calm Calm - 0.04 in Rain Rain
3:22 PM 51.8 °F - 51.8 °F 100% 30.13 in 2.0 mi Calm Calm - 0.09 in Rain Rain
3:32 PM 51.8 °F - 51.8 °F 100% 30.14 in 1.8 mi WNW 3.5 mph - 0.12 in Rain Rain
3:53 PM 52.0 °F - 51.1 °F 97% 30.12 in 2.0 mi ENE 8.1 mph - 0.21 in Rain Rain
4:09 PM 51.8 °F - 51.8 °F 100% 30.12 in 3.0 mi East 4.6 mph - 0.02 in Rain Light Rain
4:18 PM 51.8 °F - 51.8 °F 100% 30.13 in 4.0 mi East 4.6 mph - 0.03 in Rain Light Rain
4:34 PM 51.8 °F - 51.8 °F 100% 30.13 in 5.0 mi East 3.5 mph - 0.04 in Rain Light Rain
4:53 PM 51.1 °F - 51.1 °F 100% 30.12 in 4.0 mi ENE 3.5 mph - 0.06 in Rain Light Rain
5:53 PM 51.1 °F - 51.1 °F 100% 30.11 in 8.0 mi ENE 5.8 mph - 0.06 in Rain Light Rain
6:01 PM 51.8 °F - 51.8 °F 100% 30.11 in 10.0 mi East 5.8 mph - 0.00 in   Overcast
6:17 PM 51.8 °F - 51.8 °F 100% 30.11 in 10.0 mi East 5.8 mph - 0.00 in Rain Light Rain
6:53 PM 52.0 °F - 51.1 °F 97% 30.12 in 5.0 mi East 4.6 mph - 0.01 in Rain Light Rain
7:08 PM 51.8 °F - 51.8 °F 100% 30.12 in 4.0 mi NNE 5.8 mph - 0.02 in Rain Light Rain
7:20 PM 51.8 °F - 51.8 °F 100% 30.12 in 3.0 mi NNE 6.9 mph - 0.04 in Rain Rain
7:53 PM 51.1 °F - 50.0 °F 96% 30.14 in 6.0 mi NNW 4.6 mph - 0.09 in Rain Light Rain
8:16 PM 51.8 °F - 50.0 °F 94% 30.14 in 3.0 mi North 8.1 mph - 0.06 in Rain Rain
8:31 PM 50.0 °F - 48.2 °F 94% 30.14 in 5.0 mi North 10.4 mph - 0.10 in Rain Rain
8:53 PM 48.9 °F - 48.0 °F 97% 30.14 in 5.0 mi North 10.4 mph - 0.15 in Rain Rain
9:53 PM 45.0 °F 39.7 °F 44.1 °F 97% 30.13 in 7.0 mi North 10.4 mph - 0.11 in Rain Light Rain
10:53 PM 44.1 °F 37.4 °F 42.1 °F 93% 30.13 in 5.0 mi North 13.8 mph - 0.09 in Rain Rain
11:53 PM 44.1 °F 37.7 °F 42.1 °F 93% 30.12 in 4.0 mi North 12.7 mph - 0.19 in Rain Rain